Terminal Aerodrome Forecast
Issued by NWS Charleston, WV

Current Version | Previous Version | Graphics & Text | Print | Product List | Glossary On
Versions: 1 2 3 4 5 6 7 8 9 10 11 12 13 14 15 16 17 18 19 20 21 22 23
257
FTUS41 KRLX 100228 AAA
TAFBKW
TAF AMD
KBKW 100228Z 1002/1024 28009G17KT 5SM -SHSN OVC025
      TEMPO 1002/1006 1/2SM SHSN FG SCT007 OVC015
     FM100600 28014G22KT 4SM -SHSN BR OVC015
      TEMPO 1006/1009 2SM -SHSN OVC007
     FM100900 27012G19KT P6SM BKN015
     FM101700 26012G19KT P6SM BKN080
     FM102000 25011G17KT P6SM SCT080=

USA.gov is the U.S. government's official web portal to all federal, state and local government web resources and services.